DAL3100 KBHM-KATL

Flight info

Callsign DAL3100
Flight time 0h 32m
Altitude 23000
Route GUMMP DRSDN HOBTT3
Aircraft A321/M-SDE3FGHIRWY/LB1

Departure

Time 2026-05-07 16:10
Airport Birmingham-Shuttlesworth International Airport (KBHM)

Arrival

Time 2026-05-07 16:42
Airport Hartsfield Jackson Atlanta International Airport (KATL)
Time Latitude Longitude Altitude Speed Heading
2026-05-07 15:36 33.56370 -86.75115 621 ft 0 kts 147°
2026-05-07 15:40 33.56371 -86.75115 608 ft 0 kts 147°
2026-05-07 15:53 33.56371 -86.75116 608 ft 0 kts 147°
2026-05-07 16:02 33.56376 -86.75120 608 ft 4 kts 148°
2026-05-07 16:02 33.56388 -86.75130 614 ft 4 kts 137°
2026-05-07 16:03 33.56403 -86.75155 625 ft 4 kts 101°
2026-05-07 16:03 33.56401 -86.75183 623 ft 2 kts 57°
2026-05-07 16:03 33.56400 -86.75185 621 ft 0 kts 56°
2026-05-07 16:05 33.56402 -86.75182 623 ft 4 kts 56°
2026-05-07 16:05 33.56439 -86.75128 612 ft 9 kts 30°
2026-05-07 16:05 33.56495 -86.75150 618 ft 8 kts 336°
2026-05-07 16:06 33.56548 -86.75099 609 ft 15 kts 55°
2026-05-07 16:06 33.56599 -86.74990 609 ft 15 kts 77°
2026-05-07 16:06 33.56606 -86.74873 616 ft 13 kts 79°
2026-05-07 16:06 33.56649 -86.74780 610 ft 12 kts 56°
2026-05-07 16:07 33.56695 -86.74700 616 ft 12 kts 55°
2026-05-07 16:07 33.56749 -86.74606 613 ft 14 kts 55°
2026-05-07 16:07 33.56806 -86.74509 610 ft 14 kts 55°
2026-05-07 16:07 33.56861 -86.74414 616 ft 14 kts 55°
2026-05-07 16:08 33.56921 -86.74309 615 ft 17 kts 55°
2026-05-07 16:08 33.56986 -86.74196 617 ft 16 kts 55°
2026-05-07 16:08 33.57051 -86.74085 621 ft 16 kts 54°
2026-05-07 16:08 33.57115 -86.73975 620 ft 16 kts 56°
2026-05-07 16:09 33.57175 -86.73869 623 ft 14 kts 55°
2026-05-07 16:09 33.57246 -86.73847 616 ft 12 kts 332°
2026-05-07 16:09 33.57312 -86.73905 607 ft 11 kts 323°
2026-05-07 16:09 33.57306 -86.73989 618 ft 17 kts 233°
2026-05-07 16:10 33.57128 -86.74299 609 ft 81 kts 236°
2026-05-07 16:10 33.56682 -86.75071 624 ft 141 kts 235°
2026-05-07 16:10 33.56035 -86.76181 678 ft 178 kts 237°
2026-05-07 16:10 33.55323 -86.77360 1439 ft 171 kts 237°
2026-05-07 16:11 33.54596 -86.78541 2001 ft 182 kts 237°
2026-05-07 16:11 33.53797 -86.79776 2539 ft 192 kts 227°
2026-05-07 16:11 33.52555 -86.80524 2871 ft 214 kts 192°
2026-05-07 16:11 33.50999 -86.80299 3091 ft 243 kts 163°
2026-05-07 16:12 33.49320 -86.79621 3533 ft 264 kts 162°
2026-05-07 16:12 33.47560 -86.78856 4303 ft 273 kts 163°
2026-05-07 16:12 33.45751 -86.78057 5110 ft 281 kts 164°
2026-05-07 16:12 33.43925 -86.77254 5919 ft 286 kts 165°
2026-05-07 16:13 33.42042 -86.76433 6743 ft 290 kts 166°
2026-05-07 16:13 33.40131 -86.75612 7545 ft 294 kts 167°
2026-05-07 16:13 33.38197 -86.74789 8402 ft 296 kts 167°
2026-05-07 16:13 33.36216 -86.73950 9296 ft 300 kts 168°
2026-05-07 16:14 33.34267 -86.73123 10093 ft 303 kts 168°
2026-05-07 16:14 33.32224 -86.72267 10482 ft 322 kts 168°
2026-05-07 16:14 33.30134 -86.70960 10684 ft 359 kts 147°
2026-05-07 16:14 33.28511 -86.68563 11135 ft 384 kts 123°
2026-05-07 16:15 33.27244 -86.65718 11745 ft 392 kts 121°
2026-05-07 16:15 33.25981 -86.62798 12406 ft 399 kts 121°
2026-05-07 16:15 33.24703 -86.59827 13073 ft 406 kts 121°
2026-05-07 16:15 33.23397 -86.56800 13749 ft 414 kts 122°
2026-05-07 16:16 33.22063 -86.53726 14415 ft 418 kts 122°
2026-05-07 16:16 33.20714 -86.50632 15087 ft 423 kts 123°
2026-05-07 16:16 33.19340 -86.47502 15730 ft 428 kts 123°
2026-05-07 16:16 33.17945 -86.44339 16278 ft 433 kts 123°
2026-05-07 16:17 33.16550 -86.41178 16830 ft 439 kts 124°
2026-05-07 16:17 33.15119 -86.37934 17376 ft 444 kts 124°
2026-05-07 16:17 33.13668 -86.34643 17917 ft 450 kts 125°
2026-05-07 16:17 33.12203 -86.31313 18437 ft 455 kts 125°
2026-05-07 16:18 33.11227 -86.29098 18743 ft 458 kts 125°
2026-05-07 16:18 33.09739 -86.25716 19204 ft 461 kts 125°
2026-05-07 16:18 33.08254 -86.22305 19642 ft 467 kts 122°
2026-05-07 16:18 33.07078 -86.18655 20136 ft 477 kts 111°
2026-05-07 16:19 33.06393 -86.14756 20617 ft 485 kts 100°
2026-05-07 16:19 33.06174 -86.10725 21110 ft 489 kts 94°
2026-05-07 16:19 33.06030 -86.06663 21606 ft 492 kts 95°
2026-05-07 16:19 33.05872 -86.02580 22093 ft 494 kts 95°
2026-05-07 16:20 33.05707 -85.98477 22577 ft 497 kts 95°
2026-05-07 16:20 33.05537 -85.94355 22908 ft 499 kts 95°
2026-05-07 16:20 33.05365 -85.90232 22971 ft 496 kts 95°
2026-05-07 16:20 33.05193 -85.86125 22987 ft 494 kts 95°
2026-05-07 16:21 33.05021 -85.82038 22987 ft 494 kts 95°
2026-05-07 16:21 33.04850 -85.77953 22985 ft 493 kts 95°
2026-05-07 16:21 33.04676 -85.73868 22987 ft 493 kts 96°
2026-05-07 16:21 33.04500 -85.69784 22985 ft 493 kts 96°
2026-05-07 16:22 33.04325 -85.65701 22983 ft 493 kts 95°
2026-05-07 16:22 33.04152 -85.61673 22978 ft 493 kts 96°
2026-05-07 16:22 33.03978 -85.57628 22729 ft 482 kts 96°
2026-05-07 16:22 33.03808 -85.53665 22471 ft 477 kts 96°
2026-05-07 16:23 33.03635 -85.49732 22213 ft 474 kts 96°
2026-05-07 16:23 33.03457 -85.45814 21962 ft 473 kts 96°
2026-05-07 16:23 33.03282 -85.41921 21642 ft 469 kts 96°
2026-05-07 16:23 33.03108 -85.38050 21087 ft 467 kts 95°
2026-05-07 16:24 33.02934 -85.34181 20522 ft 466 kts 95°
2026-05-07 16:24 33.02766 -85.30322 19968 ft 467 kts 93°
2026-05-07 16:24 33.02963 -85.26460 19388 ft 468 kts 80°
2026-05-07 16:24 33.03770 -85.22724 18814 ft 465 kts 66°
2026-05-07 16:25 33.05148 -85.19280 18308 ft 455 kts 53°
2026-05-07 16:25 33.06977 -85.16278 17837 ft 442 kts 41°
2026-05-07 16:25 33.09042 -85.13596 17335 ft 437 kts 39°
2026-05-07 16:25 33.11092 -85.10934 16874 ft 434 kts 40°
2026-05-07 16:26 33.13123 -85.08292 16429 ft 430 kts 40°
2026-05-07 16:26 33.15136 -85.05666 15980 ft 427 kts 40°
2026-05-07 16:26 33.17138 -85.03057 15510 ft 425 kts 40°
2026-05-07 16:26 33.19126 -85.00472 15060 ft 421 kts 40°
2026-05-07 16:27 33.21106 -84.97899 14613 ft 418 kts 41°
2026-05-07 16:27 33.23067 -84.95349 14161 ft 416 kts 41°
2026-05-07 16:27 33.24995 -84.92845 13703 ft 413 kts 41°
2026-05-07 16:27 33.26930 -84.90324 13215 ft 410 kts 41°
2026-05-07 16:28 33.28842 -84.87827 12771 ft 405 kts 41°
2026-05-07 16:28 33.30732 -84.85357 12311 ft 400 kts 42°
2026-05-07 16:28 33.32612 -84.82925 11883 ft 395 kts 41°
2026-05-07 16:28 33.34500 -84.80629 11784 ft 380 kts 39°
2026-05-07 16:29 33.36371 -84.78454 11655 ft 373 kts 38°
2026-05-07 16:29 33.38251 -84.76318 11489 ft 371 kts 37°
2026-05-07 16:29 33.40123 -84.74203 11357 ft 369 kts 37°
2026-05-07 16:29 33.41984 -84.72088 11201 ft 368 kts 38°
2026-05-07 16:30 33.43828 -84.69966 11043 ft 367 kts 38°
2026-05-07 16:30 33.45658 -84.67840 10892 ft 366 kts 38°
2026-05-07 16:30 33.47479 -84.65711 10736 ft 365 kts 38°
2026-05-07 16:30 33.49287 -84.63588 10596 ft 363 kts 39°
2026-05-07 16:31 33.51068 -84.61453 10437 ft 364 kts 43°
2026-05-07 16:31 33.52504 -84.58967 10304 ft 361 kts 59°
2026-05-07 16:31 33.53380 -84.56191 10186 ft 353 kts 75°
2026-05-07 16:31 33.53680 -84.53311 10043 ft 346 kts 90°
2026-05-07 16:32 33.53677 -84.50461 9866 ft 340 kts 90°
2026-05-07 16:32 33.53680 -84.47639 9710 ft 337 kts 90°
2026-05-07 16:32 33.53683 -84.44847 9403 ft 334 kts 90°
2026-05-07 16:32 33.53687 -84.42073 9005 ft 333 kts 90°
2026-05-07 16:33 33.53688 -84.39306 8609 ft 331 kts 90°
2026-05-07 16:33 33.53687 -84.36590 8284 ft 328 kts 90°
2026-05-07 16:33 33.53688 -84.33873 7916 ft 325 kts 91°
2026-05-07 16:33 33.53690 -84.31172 7558 ft 323 kts 91°
2026-05-07 16:34 33.53692 -84.28489 7179 ft 321 kts 91°
2026-05-07 16:34 33.53697 -84.25825 6830 ft 317 kts 91°
2026-05-07 16:34 33.53700 -84.23193 6454 ft 315 kts 91°
2026-05-07 16:34 33.53703 -84.20577 6109 ft 313 kts 91°
2026-05-07 16:35 33.53705 -84.17984 5773 ft 308 kts 90°
2026-05-07 16:35 33.53851 -84.15506 5436 ft 290 kts 73°
2026-05-07 16:35 33.54745 -84.13425 5186 ft 276 kts 44°
2026-05-07 16:35 33.56235 -84.12121 4836 ft 259 kts 18°
2026-05-07 16:36 33.57876 -84.11313 4517 ft 249 kts
2026-05-07 16:36 33.59516 -84.11264 4187 ft 228 kts 338°
2026-05-07 16:36 33.60918 -84.12009 3988 ft 215 kts 324°
2026-05-07 16:36 33.62059 -84.13064 3974 ft 208 kts 307°
2026-05-07 16:37 33.62827 -84.14496 3974 ft 203 kts 289°
2026-05-07 16:37 33.63146 -84.16123 3982 ft 199 kts 272°
2026-05-07 16:37 33.63155 -84.17741 4016 ft 190 kts 269°
2026-05-07 16:37 33.63159 -84.19306 4001 ft 186 kts 269°
2026-05-07 16:38 33.63162 -84.20860 4003 ft 187 kts 269°
2026-05-07 16:38 33.63164 -84.22404 3988 ft 179 kts 269°
2026-05-07 16:38 33.63167 -84.23851 3855 ft 170 kts 269°
2026-05-07 16:38 33.63169 -84.25260 3668 ft 169 kts 269°
2026-05-07 16:39 33.63171 -84.26674 3478 ft 170 kts 269°
2026-05-07 16:39 33.63173 -84.28035 3259 ft 156 kts 269°
2026-05-07 16:39 33.63175 -84.29303 3041 ft 151 kts 270°
2026-05-07 16:39 33.63176 -84.30592 2840 ft 152 kts 270°
2026-05-07 16:40 33.63176 -84.31806 2653 ft 140 kts 271°
2026-05-07 16:40 33.63177 -84.32959 2467 ft 136 kts 272°
2026-05-07 16:40 33.63178 -84.34088 2289 ft 135 kts 274°
2026-05-07 16:40 33.63179 -84.35208 2113 ft 134 kts 274°
2026-05-07 16:41 33.63179 -84.36323 1938 ft 133 kts 273°
2026-05-07 16:41 33.63180 -84.37433 1760 ft 134 kts 274°
2026-05-07 16:41 33.63181 -84.38551 1585 ft 137 kts 271°
2026-05-07 16:41 33.63181 -84.39695 1404 ft 137 kts 271°
2026-05-07 16:42 33.63179 -84.40833 1210 ft 135 kts 271°
2026-05-07 16:42 33.63182 -84.41951 1036 ft 133 kts 270°
2026-05-07 16:42 33.63183 -84.42974 1007 ft 100 kts 270°
2026-05-07 16:42 33.63187 -84.43476 1008 ft 29 kts 278°
2026-05-07 16:43 33.63237 -84.43649 1007 ft 18 kts 297°
2026-05-07 16:43 33.63296 -84.43727 1006 ft 11 kts 349°
2026-05-07 16:43 33.63353 -84.43686 1006 ft 9 kts 75°
2026-05-07 16:43 33.63363 -84.43637 1006 ft 1 kts 69°
2026-05-07 16:44 33.63375 -84.43618 1006 ft 9 kts 44°
2026-05-07 16:44 33.63472 -84.43606 1005 ft 16 kts 358°
2026-05-07 16:44 33.63552 -84.43607 1006 ft 9 kts 352°
2026-05-07 16:44 33.63581 -84.43663 1006 ft 9 kts 278°
2026-05-07 16:45 33.63593 -84.43734 1007 ft 9 kts 307°
2026-05-07 16:45 33.63648 -84.43749 1006 ft 8 kts
2026-05-07 16:45 33.63723 -84.43723 1006 ft 12 kts
2026-05-07 16:45 33.63808 -84.43721 1006 ft 12 kts
2026-05-07 16:46 33.63892 -84.43721 1006 ft 12 kts 360°
2026-05-07 16:46 33.63974 -84.43721 1006 ft 12 kts 360°
2026-05-07 16:46 33.64054 -84.43721 1006 ft 11 kts 360°
2026-05-07 16:46 33.64133 -84.43722 1006 ft 11 kts 360°
2026-05-07 16:47 33.64209 -84.43722 1006 ft 11 kts 360°
2026-05-07 16:47 33.64283 -84.43721 1006 ft 8 kts
2026-05-07 16:47 33.64304 -84.43692 1006 ft 4 kts 80°
2026-05-07 16:47 33.64304 -84.43659 1006 ft 4 kts 89°
2026-05-07 16:48 33.64305 -84.43646 1006 ft 0 kts 89°